Hourly Data Report for August 22, 2020

LYTTON RCS
BRITISH COLUMBIA
Current Station Operator: ECCC - MSC

50°13'28.000" N
121°34'55.000" W
225.00 m
1114746
71765
VLY

Download Data

Hourly Data (August 2020)
Hourly Data Report for August 22, 2020
TIME Temp Definition
°C
Dew Point Definition
°C
Rel Hum Definition
%
Wind Dir Definition
10's deg

Wind Spd Definition
km/h
Visibility Definition
km
Stn Press Definition
kPa
Hmdx Definition


Wind Chill Definition


Weather Definition


00:00 17.0 12.4 75 18 30   98.40     LegendNANA
01:00 17.3 11.7 70 17 25   98.48     LegendNANA
02:00 16.8 12.2 74 17 32   98.62     LegendNANA
03:00 16.6 11.9 74 20 23   98.68     LegendNANA
04:00 16.5 11.2 71 20 24   98.72     LegendNANA
05:00 16.1 11.1 72 19 27   98.80     LegendNANA
06:00 15.9 10.7 71 20 24   98.88     LegendNANA
07:00 15.9 10.6 71 19 23   98.95     LegendNANA
08:00 17.1 10.2 64 19 25   98.96     LegendNANA
09:00 18.4 10.3 59 19 25   99.00     LegendNANA
10:00 21.3 9.3 46 18 29   99.01     LegendNANA
11:00 22.6 7.3 37 18 28   98.98     LegendNANA
12:00 23.8 6.5 33 19 26   98.94     LegendNANA
13:00 25.0 5.4 28 16 33   98.92     LegendNANA
14:00 26.1 4.9 26 18 28   98.89 25   LegendNANA
15:00 26.2 4.7 25 18 26   98.85 25   LegendNANA
16:00 25.8 5.1 27 18 27   98.81 25   LegendNANA
17:00 24.3 5.4 30 19 21   98.80     LegendNANA
18:00 22.7 5.9 34 20 18   98.81     LegendNANA
19:00 21.5 6.3 37 20 19   98.84     LegendNANA
20:00 20.7 6.5 40 19 18   98.88     LegendNANA
21:00 19.7 7.1 44 18 24   98.90     LegendNANA
22:00 18.7 7.9 49 17 25   98.93     LegendNANA
23:00 17.6 8.1 54 17 28   98.96     LegendNANA

Notes on Data Quality.

Legend

  • E = Estimated
  • M = Missing
  • NA = Not Available*
  • [empty] = Indicates an unobserved value
Date modified: